Back to catalog

COSMOS 1536

AliveMilitaryPO
NORAD 14699·PAYLOAD·🇷🇺 Russia

Launched Feb 8, 1984 from Plesetsk Cosmodrome

Loading…

Next Passes (next 24 hours)

TLE

FreshSource: Space-Track

Epoch: Sep 14, 2026, 12:02 UTC

1 14699U 84013A   26257.50152309  .00004201  00000-0  16225-3 0  9998
2 14699  82.5406 279.8340 0012981 345.4843  14.6021 15.25909873301390

Track COSMOS 1536 in real time with AllMySat

Download on the App Store